TimeEDT,TemperatureF,Dew PointF,Humidity,Sea Level PressureIn,VisibilityMPH,Wind Direction,Wind SpeedMPH,Gust SpeedMPH,PrecipitationIn,Events,Conditions,WindDirDegrees,DateUTC
12:51 AM,59.0,55.9,90,30.02,10.0,South,5.8,-,N/A,,Mostly Cloudy,170,2013-10-01 04:51:00
1:51 AM,59.0,55.9,90,30.02,10.0,South,5.8,-,N/A,,Overcast,180,2013-10-01 05:51:00
2:51 AM,57.0,55.0,93,30.02,9.0,South,5.8,-,N/A,,Scattered Clouds,190,2013-10-01 06:51:00
3:51 AM,57.0,55.0,93,30.02,9.0,SSW,4.6,-,N/A,,Partly Cloudy,200,2013-10-01 07:51:00
4:51 AM,55.9,54.0,93,30.03,8.0,SW,3.5,-,N/A,,Clear,220,2013-10-01 08:51:00
5:51 AM,55.9,55.0,97,30.05,7.0,SSW,3.5,-,N/A,,Mostly Cloudy,200,2013-10-01 09:51:00
6:16 AM,55.4,53.6,94,30.05,2.5,Calm,Calm,-,N/A,,Scattered Clouds,0,2013-10-01 10:16:00
6:30 AM,55.4,53.6,94,30.05,3.0,Calm,Calm,-,N/A,,Partly Cloudy,0,2013-10-01 10:30:00
6:51 AM,55.9,55.0,97,30.06,3.0,Calm,Calm,-,N/A,,Partly Cloudy,0,2013-10-01 10:51:00
7:03 AM,55.4,55.4,100,30.06,2.5,Calm,Calm,-,N/A,Fog,Partly Cloudy,0,2013-10-01 11:03:00
7:51 AM,57.0,55.9,96,30.06,2.5,SSW,3.5,-,N/A,Fog,Scattered Clouds,210,2013-10-01 11:51:00
8:51 AM,60.1,57.9,93,30.07,2.5,SW,5.8,-,N/A,,Partly Cloudy,220,2013-10-01 12:51:00
9:12 AM,60.8,59.0,94,30.08,4.0,SW,5.8,-,N/A,,Scattered Clouds,230,2013-10-01 13:12:00
9:51 AM,64.0,60.1,87,30.08,6.0,SW,8.1,-,N/A,,Scattered Clouds,230,2013-10-01 13:51:00
10:29 AM,66.2,60.8,83,30.09,7.0,WSW,9.2,-,N/A,,Mostly Cloudy,240,2013-10-01 14:29:00
10:41 AM,66.2,60.8,83,30.08,7.0,West,4.6,-,N/A,,Scattered Clouds,260,2013-10-01 14:41:00
10:51 AM,68.0,61.0,78,30.08,9.0,West,5.8,-,N/A,,Scattered Clouds,260,2013-10-01 14:51:00
11:36 AM,69.8,60.8,73,30.08,10.0,West,6.9,-,N/A,,Mostly Cloudy,260,2013-10-01 15:36:00
11:51 AM,68.0,60.1,76,30.07,10.0,West,8.1,-,N/A,,Mostly Cloudy,280,2013-10-01 15:51:00
12:51 PM,73.0,57.9,59,30.06,10.0,WNW,10.4,-,N/A,,Mostly Cloudy,290,2013-10-01 16:51:00
1:51 PM,73.0,57.0,57,30.04,10.0,West,9.2,-,N/A,,Scattered Clouds,260,2013-10-01 17:51:00
2:51 PM,73.9,57.9,57,30.02,10.0,West,9.2,-,N/A,,Mostly Cloudy,280,2013-10-01 18:51:00
3:51 PM,75.0,57.9,55,30.01,10.0,SW,9.2,-,N/A,,Mostly Cloudy,230,2013-10-01 19:51:00
4:51 PM,75.0,57.0,53,30.00,10.0,WSW,8.1,-,N/A,,Scattered Clouds,250,2013-10-01 20:51:00
5:51 PM,73.0,57.9,59,30.00,10.0,WSW,9.2,-,N/A,,Partly Cloudy,240,2013-10-01 21:51:00
6:51 PM,69.1,57.9,68,30.00,10.0,SSW,4.6,-,N/A,,Partly Cloudy,210,2013-10-01 22:51:00
7:51 PM,66.9,57.9,73,30.00,10.0,South,4.6,-,N/A,,Partly Cloudy,190,2013-10-01 23:51:00
8:51 PM,64.9,57.9,78,30.01,10.0,SSW,4.6,-,N/A,,Clear,200,2013-10-02 00:51:00
9:51 PM,64.0,57.0,78,30.01,10.0,SSW,5.8,-,N/A,,Clear,210,2013-10-02 01:51:00
10:51 PM,63.0,57.0,81,30.02,10.0,SSW,6.9,-,N/A,,Clear,210,2013-10-02 02:51:00
11:51 PM,61.0,55.9,83,30.02,10.0,SW,4.6,-,N/A,,Clear,220,2013-10-02 03:51:00